1291766429074,89.5520
1291766489074,89.3355
1291766549074,89.4603
1291766609074,89.7437
1291766669074,89.1955
1291766729074,89.7047
1291766789074,89.1926
1291766849074,89.0421
1291766909074,89.2473
1291766969074,89.4353
1291767029074,89.4420
1291767089074,88.9149
1291767149074,89.0583
1291767209074,89.1927
1291767269074,89.1303
1291767329074,89.1520
1291767389074,89.1007
1291767449074,88.7495
1291767509074,89.1027
1291767569074,89.0618
1291767629074,89.1188
1291767689074,89.1587
1291767749074,89.7096
1291767809074,89.2553
1291767869074,89.1901
1291767929074,89.0658
1291767989074,89.0933
1291768049074,88.9456
1291768109074,89.6052
1291768169074,89.3112
1291768229074,89.5025
1291768289074,89.6176
1291768349074,89.2353
1291768409074,89.5549
1291768469074,88.8335
1291768529074,89.5181
1291768589074,89.1193
1291768649074,89.4719
1291768709074,89.2158
1291768769074,89.4147
1291768829074,89.2033
1291768889074,89.1760
1291768949074,89.2542
1291769009074,89.1161
1291769069074,89.3388
1291769129074,88.6634
1291769189074,89.1604
1291769249074,89.0741
1291769309074,89.1473
1291769369074,89.1589
1291769429074,88.6640
1291769489074,88.9314
1291769549074,89.0104
1291769609074,89.0144
1291769669074,89.2458
1291769729074,89.0374
1291769789074,89.1615
1291769849074,88.9018
1291769909074,89.5495
1291769969074,89.0781
1291770029085,89.4801
1291770089085,88.9117
1291770149085,89.1362
1291770209085,89.1358
1291770269085,89.3760
1291770329085,89.3989
1291770389085,89.3430
1291770449085,89.4170
1291770509085,89.1819
1291770569085,89.5035
1291770629085,89.0418
1291770689085,89.6596
1291770749085,89.5901
1291770809085,89.2434
1291770869085,89.4877
1291770929085,89.6058
1291770989085,89.4424
1291771049085,89.3504
1291771109085,89.1754
1291771169085,89.1936
1291771229085,89.2085
1291771289085,89.3817
1291771349085,89.0659
1291771409085,89.5458
1291771469085,89.2711
1291771529085,88.8704
1291771589085,89.0951
1291771649085,89.2631
1291771709085,88.9147
1291771769085,89.0834
1291771829085,89.0000
1291771889085,89.0256
1291771949085,88.6199
1291772009085,89.0463
1291772069085,89.7803
1291772129085,89.3528
1291772189085,89.5511
1291772249085,89.1485
1291772309085,89.5644
1291772369085,88.7513
1291772429085,89.2543
1291772489085,88.6536
1291772549085,89.6448
1291772609085,88.9823
1291772669085,89.8850
1291772729085,89.1152
1291772789085,89.5963
1291772849085,89.4283
1291772909085,89.2151
1291772969085,89.2801
1291773029085,89.7666
1291773089085,89.3573
1291773149085,89.4278
1291773209085,89.1859
1291773269085,88.9937
1291773329085,89.3253
1291773389085,89.3203
1291773449085,89.3538
1291773509085,89.6086
1291773569085,89.1820
1291773629095,89.1772
1291773689095,89.4858
1291773749095,89.3057
1291773809095,89.1929
1291773869095,89.2978
1291773929095,89.6945
1291773989095,89.8046
1291774049095,89.4141
1291774109095,89.8107
1291774169095,89.6975
1291774229095,90.0074
1291774289095,89.8144
1291774349095,89.4181
1291774409095,89.5346
1291774469095,89.7125
1291774529095,89.5607
1291774589095,89.2809
1291774649095,89.6554
1291774709095,89.3241
1291774769095,89.5232
1291774829095,89.4870
1291774889095,89.8177
1291774949095,89.6488
1291775009095,89.4678
1291775069095,89.0962
1291775129095,89.7139
1291775189095,89.7465
1291775249095,89.7149
1291775309095,89.7163
1291775369095,89.5252
1291775429095,89.3774
1291775489095,90.0637
1291775549095,89.3694
1291775609095,89.7098
1291775669095,89.5982
1291775729095,89.4844
1291775789095,89.4403
1291775849095,89.9905
1291775909095,89.4910
1291775969095,90.1320
1291776029095,89.3893
1291776089095,89.9015
1291776149095,90.1527
1291776209095,89.8611
1291776269095,89.8910
1291776329095,89.5946
1291776389095,89.8663
1291776449095,90.0047
1291776509095,89.6297
1291776569095,90.2226
1291776629095,90.0204
1291776689095,90.1944
1291776749095,89.9746
1291776809095,89.7380
1291776869095,89.8217
1291776929095,89.6310
1291776989095,90.0237
1291777049095,90.2475
1291777109095,90.1449
1291777169095,90.0309
1291777229105,89.6775
1291777289105,89.6695
1291777349105,89.4550
1291777409105,89.6587
1291777469105,90.0748
1291777529105,89.6448
1291777589105,89.8865
1291777649105,89.6402
1291777709105,90.0002
1291777769105,89.8901
1291777829105,90.2831
1291777889105,89.8876
1291777949105,89.5581
1291778009105,89.8083
1291778069105,90.2432
1291778129105,89.7209
1291778189105,89.9371
1291778249105,89.7461
1291778309105,89.8955
1291778369105,90.0660
1291778429105,89.8949
1291778489105,89.5802
1291778549105,90.1318
1291778609105,90.4307
1291778669105,89.7421
1291778729105,90.1275
1291778789105,89.8147
1291778849105,90.0839
1291778909105,90.1037
1291778969105,89.7972
1291779029105,90.1112
1291779089105,90.5659
1291779149105,89.8233
1291779209105,90.0868
1291779269105,89.5957
1291779329105,89.8119
1291779389105,90.2016
1291779449105,89.6439
1291779509105,90.5353
1291779569105,90.0030
1291779629105,89.9914
1291779689105,89.7864
1291779749105,90.2413
1291779809105,89.9419
1291779869105,90.5622
1291779929105,90.1812
1291779989105,90.1690
1291780049105,89.8054
1291780109105,90.4150
1291780169105,90.3262
1291780229105,90.0529
1291780289105,89.9244
1291780349105,90.2505
1291780409105,90.2927
1291780469105,90.2091
1291780529105,90.2265
1291780589105,89.7789
1291780649105,90.5431
1291780709105,90.1101
1291780769105,90.0956
1291780829116,89.4617
1291780889116,90.0240
1291780949116,90.2705
1291781009116,90.0019
1291781069116,90.0020
1291781129116,90.2003
1291781189116,90.3515
1291781249116,90.2986
1291781309116,90.2022
1291781369116,90.3974
1291781429116,90.1960
1291781489116,89.9834
1291781549116,90.4370
1291781609116,89.9016
1291781669116,89.6845
1291781729116,90.3496
1291781789116,89.5723
1291781849116,89.9889
1291781909116,90.2181
1291781969116,90.7888
1291782029116,89.9105
1291782089116,90.5733
1291782149116,90.1877
1291782209116,89.9880
1291782269116,90.5452
1291782329116,90.1299
1291782389116,89.9391
1291782449116,90.7053
1291782509116,90.0719
1291782569116,90.6770
1291782629116,90.0553
1291782689116,90.2452
1291782749116,90.4461
1291782809116,90.1070
1291782869116,90.1348
1291782929116,89.9906
1291782989116,89.6393
1291783049116,90.4314
1291783109116,90.0232
1291783169116,89.9139
1291783229116,89.8560
1291783289116,90.2144
1291783349116,90.0779
1291783409116,90.0241
1291783469116,89.4678
1291783529116,90.1216
1291783589116,90.2514
1291783649116,90.3378
1291783709116,90.2869
1291783769116,90.7073
1291783829116,90.4849
1291783889116,90.1796
1291783949116,90.0156
1291784009116,90.2679
1291784069116,89.9863
1291784129116,90.3562
1291784189116,89.9519
1291784249116,90.1699
1291784309116,89.7285
1291784369116,90.0829
1291784429126,89.7454
1291784489126,90.3893
1291784549126,89.8370
1291784609126,89.7317
1291784669126,89.9798
1291784729126,89.9694
1291784789126,90.1880
1291784849126,89.9969
1291784909126,89.9976
1291784969126,89.9492
1291785029126,89.9978
1291785089126,89.7611
1291785149126,89.6505
1291785209126,90.1643
1291785269126,89.5786
1291785329126,90.2944
1291785389126,90.1040
1291785449126,90.1660
1291785509126,90.0141
1291785569126,90.3140
1291785629126,90.1656
1291785689126,89.7805
1291785749126,90.3355
1291785809126,90.4428
1291785869126,89.9091
1291785929126,90.3090
1291785989126,90.3546
1291786049126,90.0637
1291786109126,90.0499
1291786169126,90.4871
1291786229126,90.2611
1291786289126,89.8598
1291786349126,90.1520
1291786409126,90.6072
1291786469126,90.1857
1291786529126,90.5793
1291786589126,89.8110
1291786649126,90.0914
1291786709126,90.2216
1291786769126,89.6703
1291786829126,89.9182
1291786889126,89.4704
1291786949126,89.7768
1291787009126,89.7771
1291787069126,90.3133
1291787129126,89.9511
1291787189126,89.8985
1291787249126,90.4627
1291787309126,89.8613
1291787369126,89.4818
1291787429126,90.0689
1291787489126,90.1306
1291787549126,89.7539
1291787609126,90.0598
1291787669126,89.6774
1291787729126,90.3059
1291787789126,90.0587
1291787849126,90.2557
1291787909126,89.9304
1291787969126,89.9172
1291788029136,89.8166
1291788089136,90.2165
1291788149136,89.8391
1291788209136,89.4494
1291788269136,90.1824
1291788329136,90.1003
1291788389136,89.5434
1291788449136,89.8687
1291788509136,89.8502
1291788569136,89.7997
1291788629136,90.0032
1291788689136,89.8436
1291788749136,89.7890
1291788809136,89.4426
1291788869136,89.9506
1291788929136,89.9105
1291788989136,89.6046
1291789049136,89.5603
1291789109136,89.7017
1291789169136,89.4936
1291789229136,90.0621
1291789289136,89.9334
1291789349136,89.9530
1291789409136,89.4514
1291789469136,89.8079
1291789529136,89.4691
1291789589136,89.4858
1291789649136,90.0895
1291789709136,89.5555
1291789769136,89.7601
1291789829136,89.7183
1291789889136,89.8865
1291789949136,89.4559
1291790009136,89.9709
1291790069136,89.8403
1291790129136,89.9790
1291790189136,89.2229
1291790249136,89.9258
1291790309136,89.7418
1291790369136,89.7980
1291790429136,89.7065
1291790489136,89.5063
1291790549136,89.6504
1291790609136,89.8457
1291790669136,90.2888
1291790729136,89.7710
1291790789136,89.6619
1291790849136,89.6651
1291790909136,89.6982
1291790969136,89.7373
1291791029136,89.5322
1291791089136,89.9585
1291791149136,89.1425
1291791209136,89.5237
1291791269136,89.9064
1291791329136,89.8274
1291791389136,89.9564
1291791449136,90.1007
1291791509136,89.6611
1291791569136,89.1027
1291791629147,89.7797
1291791689147,89.4869
1291791749147,89.4175
1291791809147,89.5969
1291791869147,89.2992
1291791929147,89.6347
1291791989147,89.3125
1291792049147,89.4303
1291792109147,89.3044
1291792169147,89.4899
1291792229147,90.0718
1291792289147,89.6099
1291792349147,89.5038
1291792409147,89.5590
1291792469147,89.6127
1291792529147,89.8391
1291792589147,89.6596
1291792649147,89.6600
1291792709147,90.1128
1291792769147,89.8735
1291792829147,89.2829
1291792889147,89.4941
1291792949147,89.5799
1291793009147,89.5312
1291793069147,89.6661
1291793129147,89.5642
1291793189147,89.4143
1291793249147,89.8727
1291793309147,89.4955
1291793369147,89.8718
1291793429147,89.8220
1291793489147,89.4620
1291793549147,89.8506
1291793609147,89.9884
1291793669147,89.2834
1291793729147,89.1547
1291793789147,89.8985
1291793849147,89.6298
1291793909147,89.3118
1291793969147,89.2190
1291794029147,89.4633
1291794089147,89.4851
1291794149147,89.9059
1291794209147,89.5347
1291794269147,89.4143
1291794329147,89.7293
1291794389147,89.2918
1291794449147,89.6253
1291794509147,89.3372
1291794569147,89.3476
1291794629147,89.1907
1291794689147,89.4423
1291794749147,89.7521
1291794809147,89.3344
1291794869147,89.0367
1291794929147,89.0445
1291794989147,89.1353
1291795049147,89.7439
1291795109147,89.5364
1291795169147,89.6140
1291795229158,89.2705
1291795289158,89.4660
1291795349158,89.0035
1291795409158,89.3885
1291795469158,89.0111
1291795529158,89.2514
1291795589158,89.3769
1291795649158,88.9053
1291795709158,88.8384
1291795769158,88.9605
1291795829158,88.9843
1291795889158,89.2526
1291795949158,88.5482
1291796009158,88.6866
1291796069158,88.6690
1291796129158,88.9752
1291796189158,88.7670
1291796249158,88.9395
1291796309158,88.6965
1291796369158,88.4721
1291796429158,88.8449
1291796489158,88.6030
1291796549158,88.5044
1291796609158,88.7018
1291796669158,88.3793
1291796729158,88.5892
1291796789158,88.3516
1291796849158,88.6915
1291796909158,88.8165
1291796969158,88.6664
1291797029158,88.1146
1291797089158,88.7795
1291797149158,88.6466
1291797209158,88.2851
1291797269158,88.1240
1291797329158,88.1577
1291797389158,88.6327
1291797449158,88.3775
1291797509158,88.3026
1291797569158,88.6013
1291797629158,88.2384
1291797689158,87.8191
1291797749158,88.2335
1291797809158,88.1988
1291797869158,88.3086
1291797929158,87.7502
1291797989158,87.9352
1291798049158,87.6835
1291798109158,87.9301
1291798169158,88.0177
1291798229158,87.7810
1291798289158,88.0802
1291798349158,88.4750
1291798409158,88.1266
1291798469158,87.7561
1291798529158,87.7739
1291798589158,88.1226
1291798649158,88.0819
1291798709158,87.8978
1291798769158,87.8301
1291798829170,87.9217
1291798889170,87.6931
1291798949170,87.2808
1291799009170,88.2727
1291799069170,87.4349
1291799129170,87.6741
1291799189170,87.8755
1291799249170,88.1697
1291799309170,87.8716
1291799369170,87.8549
1291799429170,87.7974
1291799489170,87.3762
1291799549170,87.6427
1291799609170,87.6033
1291799669170,88.3512
1291799729170,87.6829
1291799789170,87.6882
1291799849170,87.8505
1291799909170,87.8269
1291799969170,87.5770
1291800029170,87.6842
1291800089170,87.2769
1291800149170,87.4330
1291800209170,87.5984
1291800269170,87.6083
1291800329170,87.9343
1291800389170,87.4120
1291800449170,87.6201
1291800509170,87.3865
1291800569170,87.5978
1291800629170,87.7403
1291800689170,87.2680
1291800749170,87.8035
1291800809170,87.6906
1291800869170,87.3523
1291800929170,87.8843
1291800989170,87.3058
1291801049170,87.6107
1291801109170,87.4826
1291801169170,87.6890
1291801229170,87.5883
1291801289170,87.5455
1291801349170,87.9964
1291801409170,87.1548
1291801469170,87.7201
1291801529170,87.5771
1291801589170,87.4967
1291801649170,87.7080
1291801709170,87.8515
1291801769170,87.3021
1291801829170,87.5164
1291801889170,87.3703
1291801949170,87.4520
1291802009170,87.4930
1291802069170,87.6062
1291802129170,87.5214
1291802189170,87.3166
1291802249170,87.7276
1291802309170,87.5046
1291802369170,87.5688
1291802429181,87.1743
1291802489181,87.4928
1291802549181,87.4202
1291802609181,87.2717
1291802669181,87.5210
1291802729181,87.0879
1291802789181,87.5864
1291802849181,87.2185
1291802909181,87.3983
1291802969181,87.6172
1291803029181,87.4687
1291803089181,87.7895
1291803149181,87.8783
1291803209181,87.3259
1291803269181,87.3707
1291803329181,87.4773
1291803389181,87.8440
1291803449181,87.4685
1291803509181,87.5844
1291803569181,87.4076
1291803629181,87.4952
1291803689181,87.0293
1291803749181,87.4588
1291803809181,88.1058
1291803869181,87.6535
1291803929181,87.6724
1291803989181,87.6599
1291804049181,87.5813
1291804109181,87.3029
1291804169181,87.6733
1291804229181,87.7299
1291804289181,87.6375
1291804349181,87.3375
1291804409181,87.5418
1291804469181,87.6291
1291804529181,87.3402
1291804589181,87.4737
1291804649181,87.6867
1291804709181,87.1654
1291804769181,87.9633
1291804829181,87.8450
1291804889181,88.0224
1291804949181,87.3290
1291805009181,87.2989
1291805069181,87.5159
1291805129181,87.4653
1291805189181,87.4428
1291805249181,87.5860
1291805309181,87.5110
1291805369181,87.9343
1291805429181,87.3482
1291805489181,87.5106
1291805549181,87.5802
1291805609181,88.3302
1291805669181,87.4071
1291805729181,87.6196
1291805789181,87.6394
1291805849181,87.6876
1291805909181,87.1641
1291805969181,87.7641
1291806029193,87.5602
1291806089193,87.8840
1291806149193,87.5571
1291806209193,87.4023
1291806269193,87.5646
1291806329193,87.8519
1291806389193,87.6761
1291806449193,87.6384
1291806509193,87.3139
1291806569193,87.8605
1291806629193,87.1608
1291806689193,87.2106
1291806749193,87.2893
1291806809193,87.3191
1291806869193,87.6660
1291806929193,87.8568
1291806989193,87.1588
1291807049193,87.8629
1291807109193,87.4559
1291807169193,87.7804
1291807229193,87.7949
1291807289193,87.5666
1291807349193,87.4455
1291807409193,87.6036
1291807469193,87.4471
1291807529193,87.4255
1291807589193,87.0677
1291807649193,87.5612
1291807709193,87.3318
1291807769193,87.1219
1291807829193,87.3193
1291807889193,87.8288
1291807949193,88.0919
1291808009193,87.9620
1291808069193,87.7694
1291808129193,87.3706
1291808189193,87.3248
1291808249193,87.5469
1291808309193,87.1264
1291808369193,87.7568
1291808429193,87.4020
1291808489193,87.7363
1291808549193,87.7583
1291808609193,87.4793
1291808669193,87.5781
1291808729193,87.5222
1291808789193,87.6309
1291808849193,87.3884
1291808909193,88.0261
1291808969193,87.9026
1291809029193,87.6311
1291809089193,87.4891
1291809149193,87.2820
1291809209193,87.7122
1291809269193,87.6780
1291809329193,87.7525
1291809389193,87.6538
1291809449193,87.5098
1291809509193,87.6330
1291809569193,87.5560
1291809629205,87.9119
1291809689205,88.0129
1291809749205,87.7947
1291809809205,87.7323
1291809869205,87.3318
1291809929205,87.5203
1291809989205,87.9478
1291810049205,87.7757
1291810109205,87.7204
1291810169205,88.2338
1291810229205,87.7584
1291810289205,87.3675
1291810349205,87.6990
1291810409205,87.9241
1291810469205,87.7798
1291810529205,87.1793
1291810589205,87.7033
1291810649205,87.5646
1291810709205,87.3917
1291810769205,87.8245
1291810829205,87.1229
1291810889205,87.7177
1291810949205,88.0462
1291811009205,87.8372
1291811069205,87.7535
1291811129205,87.7191
1291811189205,87.9470
1291811249205,87.5124
1291811309205,87.2241
1291811369205,87.6951
1291811429205,87.8333
1291811489205,87.5064
1291811549205,87.8163
1291811609205,87.4999
1291811669205,87.3155
1291811729205,87.4575
1291811789205,87.7624
1291811849205,87.6901
1291811909205,87.7517
1291811969205,87.4105
1291812029205,87.6216
1291812089205,87.8856
1291812149205,87.8020
1291812209205,87.4316
1291812269205,87.9540
1291812329205,87.4585
1291812389205,87.8116
1291812449205,87.4847
1291812509205,87.5068
1291812569205,86.9488
1291812629205,87.8540
1291812689205,87.5947
1291812749205,87.4761
1291812809205,87.8117
1291812869205,88.1554
1291812929205,87.6387
1291812989205,87.7695
1291813049205,87.8994
1291813109205,87.3927
1291813169205,87.1470
1291813229217,87.4721
1291813289217,87.5395
1291813349217,87.4009
1291813409217,87.4603
1291813469217,87.8790
1291813529217,87.5906
1291813589217,87.6627
1291813649217,87.3251
1291813709217,87.5658
1291813769217,87.1421
1291813829217,87.5550
1291813889217,87.8619
1291813949217,86.6669
1291814009217,87.4836
1291814069217,87.2250
1291814129217,87.5356
1291814189217,87.3224
1291814249217,87.9540
1291814309217,87.4578
1291814369217,87.6002
1291814429217,87.3308
1291814489217,87.6007
1291814549217,87.2487
1291814609217,87.5900
1291814669217,87.6543
1291814729217,87.3772
1291814789217,87.3535
1291814849217,87.1863
1291814909217,87.6363
1291814969217,87.7323
1291815029217,87.3309
1291815089217,87.2491
1291815149217,87.8262
1291815209217,87.4191
1291815269217,86.9081
1291815329217,87.3254
1291815389217,87.1342
1291815449217,87.3676
1291815509217,87.5896
1291815569217,87.1734
1291815629217,87.0997
1291815689217,87.4193
1291815749217,87.8622
1291815809217,87.4704
1291815869217,87.3695
1291815929217,86.8908
1291815989217,87.3662
1291816049217,87.2414
1291816109217,87.4362
1291816169217,87.5303
1291816229217,87.1247
1291816289217,87.2167
1291816349217,86.7461
1291816409217,87.2131
1291816469217,87.4044
1291816529217,87.0117
1291816589217,87.5766
1291816649217,87.4476
1291816709217,87.0518
1291816769217,87.4624
1291816829229,87.4291
1291816889229,87.3801
1291816949229,87.6688
1291817009229,87.5150
1291817069229,87.4864
1291817129229,87.4219
1291817189229,87.9199
1291817249229,87.5360
1291817309229,87.3999
1291817369229,87.4925
1291817429229,87.2448
1291817489229,87.3831
1291817549229,87.3840
1291817609229,86.8614
1291817669229,87.3127
1291817729229,87.3817
1291817789229,87.2437
1291817849229,87.2320
1291817909229,87.0586
1291817969229,87.3323
1291818029229,87.1708
1291818089229,87.4108
1291818149229,87.3419
1291818209229,87.2673
1291818269229,87.0111
1291818329229,86.8528
1291818389229,87.1282
1291818449229,87.1754
1291818509229,87.0248
1291818569229,86.8346
1291818629229,86.6641
1291818689229,87.0377
1291818749229,86.8687
1291818809229,86.8142
1291818869229,86.9822
1291818929229,87.2721
1291818989229,87.1373
1291819049229,86.8671
1291819109229,87.1505
1291819169229,86.7428
1291819229229,87.0012
1291819289229,86.9242
1291819349229,86.8518
1291819409229,86.8186
1291819469229,86.5197
1291819529229,86.6992
1291819589229,86.9330
1291819649229,87.1039
1291819709229,86.7041
1291819769229,86.8950
1291819829229,86.7288
1291819889229,86.9360
1291819949229,87.1956
1291820009229,87.1012
1291820069229,87.5519
1291820129229,86.9636
1291820189229,86.7276
1291820249229,86.8599
1291820309229,86.6382
1291820369229,86.7444
1291820429241,86.7106
1291820489241,86.9647
1291820549241,86.6143
1291820609241,86.9196
1291820669241,86.8991
1291820729241,86.8687
1291820789241,86.8772
1291820849241,86.8291
1291820909241,86.8747
1291820969241,86.8694
1291821029241,87.3137
1291821089241,86.7712
1291821149241,87.2137
1291821209241,86.7666
1291821269241,86.8275
1291821329241,86.7831
1291821389241,86.6764
1291821449241,86.3421
1291821509241,86.9331
1291821569241,86.6217
1291821629241,86.5620
1291821689241,86.9486
1291821749241,87.4211
1291821809241,86.9322
1291821869241,86.9717
1291821929241,86.8502
1291821989241,87.1628
1291822049241,86.8174
1291822109241,86.8527
1291822169241,86.9374
1291822229241,87.6327
1291822289241,87.0011
1291822349241,86.7483
1291822409241,87.2330
1291822469241,87.1026
1291822529241,87.1036
1291822589241,86.6562
1291822649241,86.7190
1291822709241,86.8954
1291822769241,86.6325
1291822829241,86.3618
1291822889241,86.9419
1291822949241,87.1858
1291823009241,86.9678
1291823069241,86.7869
1291823129241,87.3198
1291823189241,87.6672
1291823249241,86.8833
1291823309241,87.0626
1291823369241,86.7813
1291823429241,86.6561
1291823489241,87.1658
1291823549241,86.8752
1291823609241,87.4185
1291823669241,87.4903
1291823729241,87.1908
1291823789241,86.8183
1291823849241,86.8484
1291823909241,86.8807
1291823969241,86.8971
1291824029253,87.3617
1291824089253,86.7306
1291824149253,86.5880
1291824209253,86.8242
1291824269253,86.8740
1291824329253,86.7518
1291824389253,86.5417
1291824449253,86.8789
1291824509253,87.0393
1291824569253,86.8633
1291824629253,87.3603
1291824689253,87.1739
1291824749253,87.2710
1291824809253,86.5690
1291824869253,87.0146
1291824929253,87.2535
1291824989253,87.0092
1291825049253,86.9488
1291825109253,87.0535
1291825169253,87.1356
1291825229253,87.0368
1291825289253,87.3759
1291825349253,86.9716
1291825409253,86.8608
1291825469253,86.9973
1291825529253,87.3072
1291825589253,87.2554
1291825649253,87.2611
1291825709253,87.4458
1291825769253,86.9545
1291825829253,87.3359
1291825889253,87.0480
1291825949253,87.2190
1291826009253,87.0686
1291826069253,86.8705
1291826129253,87.0393
1291826189253,87.1779
1291826249253,87.3020
1291826309253,87.5326
1291826369253,87.1493
1291826429253,87.9568
1291826489253,86.9854
1291826549253,86.9437
1291826609253,87.2402
1291826669253,87.3660
1291826729253,87.0334
1291826789253,87.2838
1291826849253,87.8387
1291826909253,87.3623
1291826969253,87.3858
1291827029253,87.2648
1291827089253,86.8408
1291827149253,87.3513
1291827209253,87.1471
1291827269253,87.4067
1291827329253,87.7821
1291827389253,87.6010
1291827449253,87.1345
1291827509253,87.0796
1291827569253,86.7791
1291827629265,87.2507
1291827689265,87.5564
1291827749265,86.7214
1291827809265,86.9215
1291827869265,87.5275
1291827929265,87.4715
1291827989265,87.0583
1291828049265,87.5590
1291828109265,87.0699
1291828169265,87.0839
1291828229265,86.8767
1291828289265,87.4132
1291828829265,86.8491
1291828889265,87.5959
1291828949265,87.5274
1291829009265,87.0929
1291829069265,87.5221
1291829129265,87.5132
1291829189265,87.0849
1291829249265,86.6468
1291829309265,87.5493
1291829369265,87.5306
1291829429265,87.4004
1291829489265,86.9462
1291829549265,87.0380
1291829609265,87.0180
1291829669265,86.7714
1291829729265,87.1210
1291829789265,87.0803
1291829849265,87.4434
1291829909265,87.2812
1291829969265,87.0551
1291830029265,87.2341
1291830089265,87.3488
1291830149265,86.9642
1291830209265,87.0581
1291830269265,87.1053
1291830329265,86.8203
1291830389265,86.8755
1291830449265,87.3927
1291830509265,87.0009
1291830569265,87.3403
1291830629265,87.2036
1291830689265,86.7240
1291830749265,87.2995
1291830809265,86.9849
1291830869265,87.0266
1291830929265,87.4350
1291830989265,87.1202
1291831049265,87.3235
1291831109265,87.0210
1291831169265,87.5437
1291831229277,87.2895
1291831289277,86.9120
1291831349277,87.4515
1291831409276,87.7801
1291831469276,87.5621
1291831529276,86.9627
1291831589276,86.8621
1291831649276,87.3899
1291831709277,87.5442
1291831769277,87.6078
1291831829277,87.3522
1291831889277,87.3957
1291831949277,87.4055
1291832009277,87.4965
1291832069277,87.6115
1291832129277,87.2449
1291832189277,87.4636
1291832249277,87.7741